Year,Month,Day,Hour,Minute,Value (Times are PST for windspeed in km/hr)
2012,01,26,00,00,2.30
2012,01,26,00,01,3.60
2012,01,26,00,02,1.90
2012,01,26,00,03,0.20
2012,01,26,00,04,0.10
2012,01,26,00,05,0.10
2012,01,26,00,06,0.20
2012,01,26,00,07,1.10
2012,01,26,00,08,0.20
2012,01,26,00,09,0.60
2012,01,26,00,10,0.00
2012,01,26,00,11,0.80
2012,01,26,00,12,0.20
2012,01,26,00,16,0.00
2012,01,26,00,17,0.00
2012,01,26,00,18,0.10
2012,01,26,00,19,0.00
2012,01,26,00,20,0.00
2012,01,26,00,21,0.00
2012,01,26,00,22,0.00
2012,01,26,00,23,0.00
2012,01,26,00,24,0.80
2012,01,26,00,25,0.40
2012,01,26,00,26,0.20
2012,01,26,00,27,1.30
2012,01,26,00,28,0.00
2012,01,26,00,29,0.00
2012,01,26,00,30,0.10
2012,01,26,00,31,0.00
2012,01,26,00,32,0.00
2012,01,26,00,33,0.00
2012,01,26,00,34,0.00
2012,01,26,00,35,0.00
2012,01,26,00,36,0.00
2012,01,26,00,37,0.10
2012,01,26,00,38,0.70
2012,01,26,00,39,0.00
2012,01,26,00,40,0.00
2012,01,26,00,41,0.00
2012,01,26,00,42,0.90
2012,01,26,00,43,0.10
2012,01,26,00,44,0.00
2012,01,26,00,45,0.30
2012,01,26,00,46,0.20
2012,01,26,00,47,1.20
2012,01,26,00,48,0.20
2012,01,26,00,49,2.20
2012,01,26,00,50,1.90
2012,01,26,00,51,3.40
2012,01,26,00,52,3.10
2012,01,26,00,53,4.70
2012,01,26,00,54,5.00
2012,01,26,00,55,0.30
2012,01,26,00,56,0.80
2012,01,26,00,57,3.10
2012,01,26,00,58,3.40
2012,01,26,00,59,2.20
2012,01,26,01,00,2.70
2012,01,26,01,01,6.50
2012,01,26,01,02,2.70
2012,01,26,01,03,4.20
2012,01,26,01,04,7.30
2012,01,26,01,05,6.70
2012,01,26,01,06,9.30
2012,01,26,01,07,13.20
2012,01,26,01,08,11.30
2012,01,26,01,09,7.70
2012,01,26,01,10,11.00
2012,01,26,01,11,11.80
2012,01,26,01,12,15.10
2012,01,26,01,13,7.20
2012,01,26,01,14,14.70
2012,01,26,01,15,21.10
2012,01,26,01,16,14.20
2012,01,26,01,17,12.60
2012,01,26,01,18,11.90
2012,01,26,01,19,10.70
2012,01,26,01,20,6.20
2012,01,26,01,21,19.80
2012,01,26,01,22,12.60
2012,01,26,01,23,16.00
2012,01,26,01,24,8.90
2012,01,26,01,25,14.10
2012,01,26,01,26,7.60
2012,01,26,01,27,16.30
2012,01,26,01,28,19.10
2012,01,26,01,29,17.10
2012,01,26,01,30,19.60
2012,01,26,01,31,10.60
2012,01,26,01,32,21.10
2012,01,26,01,33,14.00
2012,01,26,01,34,17.50
2012,01,26,01,35,20.60
2012,01,26,01,36,24.70
2012,01,26,01,37,26.40
2012,01,26,01,38,22.60
2012,01,26,01,39,16.80
2012,01,26,01,40,20.20
2012,01,26,01,41,23.30
2012,01,26,01,42,30.10
2012,01,26,01,43,30.90
2012,01,26,01,44,34.00
2012,01,26,01,45,31.50
2012,01,26,01,46,26.20
2012,01,26,01,47,24.80
2012,01,26,01,48,26.60
2012,01,26,01,49,27.00
2012,01,26,01,50,31.10
2012,01,26,01,57,29.00
2012,01,26,01,58,45.50
2012,01,26,01,59,39.00
2012,01,26,02,00,33.90
2012,01,26,02,01,28.00
2012,01,26,02,02,20.70
2012,01,26,02,03,28.10
2012,01,26,02,04,39.80
2012,01,26,02,05,28.80
2012,01,26,02,06,22.80
2012,01,26,02,07,30.10
2012,01,26,02,08,35.00
2012,01,26,02,09,22.40
2012,01,26,02,10,27.70
2012,01,26,02,11,29.00
2012,01,26,02,12,29.20
2012,01,26,02,13,28.10
2012,01,26,02,14,31.60
2012,01,26,02,15,19.50
2012,01,26,02,16,31.40
2012,01,26,02,17,34.40
2012,01,26,02,18,23.20
2012,01,26,02,19,30.00
2012,01,26,02,20,39.00
2012,01,26,02,21,31.50
2012,01,26,02,22,28.10
2012,01,26,02,23,37.20
2012,01,26,02,24,30.10
2012,01,26,02,25,34.70
2012,01,26,02,26,37.70
2012,01,26,02,27,27.20
2012,01,26,02,28,23.80
2012,01,26,02,29,29.60
2012,01,26,02,30,24.80
2012,01,26,02,31,33.50
2012,01,26,02,32,32.20
2012,01,26,02,33,21.00
2012,01,26,02,34,25.40
2012,01,26,02,35,33.00
2012,01,26,02,36,30.50
2012,01,26,02,39,36.70
2012,01,26,02,40,38.00
2012,01,26,02,41,45.50
2012,01,26,02,42,37.00
2012,01,26,02,43,25.20
2012,01,26,02,44,30.30
2012,01,26,02,45,33.20
2012,01,26,02,46,28.20
2012,01,26,02,47,29.20
2012,01,26,02,48,24.50
2012,01,26,02,49,25.00
2012,01,26,02,50,33.00
2012,01,26,02,51,35.60
2012,01,26,02,52,34.40
2012,01,26,02,53,20.60
2012,01,26,02,54,38.10
2012,01,26,02,55,32.40
2012,01,26,02,56,21.80
2012,01,26,02,57,26.90
2012,01,26,02,58,30.90
2012,01,26,02,59,27.30
2012,01,26,03,00,24.80
2012,01,26,03,01,26.30
2012,01,26,03,02,21.20
2012,01,26,03,03,32.60
2012,01,26,03,04,37.30
2012,01,26,03,05,30.40
2012,01,26,03,06,26.50
2012,01,26,03,07,21.50
2012,01,26,03,08,27.80
2012,01,26,03,09,23.80
2012,01,26,03,10,23.30
2012,01,26,03,11,34.70
2012,01,26,03,12,30.60
2012,01,26,03,13,19.60
2012,01,26,03,14,20.20
2012,01,26,03,15,33.10
2012,01,26,03,16,28.50
2012,01,26,03,17,27.70
2012,01,26,03,18,30.10
2012,01,26,03,19,19.30
2012,01,26,03,20,30.70
2012,01,26,03,21,32.10
2012,01,26,03,22,35.20
2012,01,26,03,23,26.60
2012,01,26,03,24,25.70
2012,01,26,03,25,33.70
2012,01,26,03,26,34.90
2012,01,26,03,27,21.50
2012,01,26,03,28,23.20
2012,01,26,03,29,19.50
2012,01,26,03,30,29.30
2012,01,26,03,31,34.50
2012,01,26,03,32,24.70
2012,01,26,03,33,18.30
2012,01,26,03,34,28.20
2012,01,26,03,35,32.10
2012,01,26,03,36,25.40
2012,01,26,03,37,32.40
2012,01,26,03,38,22.60
2012,01,26,03,39,29.80
2012,01,26,03,40,31.30
2012,01,26,03,41,28.20
2012,01,26,03,42,28.20
2012,01,26,03,43,31.40
2012,01,26,03,44,24.70
2012,01,26,03,45,33.20
2012,01,26,03,46,24.70
2012,01,26,03,47,27.80
2012,01,26,03,48,26.70
2012,01,26,03,49,27.10
2012,01,26,03,50,25.90
2012,01,26,03,51,22.40
2012,01,26,03,52,20.80
2012,01,26,03,53,20.20
2012,01,26,03,54,26.70
2012,01,26,03,55,21.50
2012,01,26,03,56,14.20
2012,01,26,03,57,30.00
2012,01,26,03,58,16.30
2012,01,26,03,59,22.90
2012,01,26,04,00,17.10
2012,01,26,04,01,27.90
2012,01,26,04,02,21.30
2012,01,26,04,03,17.10
2012,01,26,04,04,20.40
2012,01,26,04,05,22.20
2012,01,26,04,06,22.30
2012,01,26,04,07,16.20
2012,01,26,04,08,21.20
2012,01,26,04,09,18.40
2012,01,26,04,10,25.90
2012,01,26,04,11,23.90
2012,01,26,04,12,18.60
2012,01,26,04,13,19.60
2012,01,26,04,14,19.20
2012,01,26,04,15,20.50
2012,01,26,04,16,26.10
2012,01,26,04,17,22.70
2012,01,26,04,18,16.90
2012,01,26,04,19,17.80
2012,01,26,04,20,19.90
2012,01,26,04,21,23.00
2012,01,26,04,22,14.90
2012,01,26,04,23,23.00
2012,01,26,04,24,18.90
2012,01,26,04,25,24.00
2012,01,26,04,26,13.60
2012,01,26,04,27,18.40
2012,01,26,04,28,20.20
2012,01,26,04,29,9.50
2012,01,26,04,30,9.70
2012,01,26,04,31,16.60
2012,01,26,04,32,11.20
2012,01,26,04,33,18.30
2012,01,26,04,34,14.00
2012,01,26,04,35,13.30
2012,01,26,04,36,14.00
2012,01,26,04,37,18.50
2012,01,26,04,38,13.30
2012,01,26,04,39,10.00
2012,01,26,04,40,11.80
2012,01,26,04,41,20.50
2012,01,26,04,42,11.30
2012,01,26,04,43,14.80
2012,01,26,04,44,9.00
2012,01,26,04,45,9.00
2012,01,26,04,46,8.10
2012,01,26,04,47,5.50
2012,01,26,04,48,5.70
2012,01,26,04,49,8.40
2012,01,26,04,50,6.40
2012,01,26,04,51,7.40
2012,01,26,04,52,8.30
2012,01,26,04,53,6.90
2012,01,26,04,54,15.80
2012,01,26,04,55,13.00
2012,01,26,04,56,11.60
2012,01,26,04,57,12.30
2012,01,26,04,58,4.00
2012,01,26,04,59,6.80
2012,01,26,05,00,7.80
2012,01,26,05,01,10.70
2012,01,26,05,02,7.70
2012,01,26,05,03,9.40
2012,01,26,05,04,12.60
2012,01,26,05,05,13.80
2012,01,26,05,06,9.10
2012,01,26,05,07,7.20
2012,01,26,05,08,8.50
2012,01,26,05,09,6.70
2012,01,26,05,10,12.80
2012,01,26,05,11,10.50
2012,01,26,05,12,9.70
2012,01,26,05,13,9.60
2012,01,26,05,14,7.50
2012,01,26,05,15,5.90
2012,01,26,05,16,4.50
2012,01,26,05,17,7.60
2012,01,26,05,18,14.60
2012,01,26,05,19,13.80
2012,01,26,05,20,8.10
2012,01,26,05,21,15.40
2012,01,26,05,22,14.40
2012,01,26,05,23,8.90
2012,01,26,05,24,13.50
2012,01,26,05,25,9.70
2012,01,26,05,26,13.00
2012,01,26,05,27,6.00
2012,01,26,05,28,8.80
2012,01,26,05,29,9.10
2012,01,26,05,30,8.10
2012,01,26,05,31,6.30
2012,01,26,05,32,8.60
2012,01,26,05,33,10.70
2012,01,26,05,34,6.80
2012,01,26,05,35,7.30
2012,01,26,05,36,6.80
2012,01,26,05,37,7.20
2012,01,26,05,38,10.70
2012,01,26,05,39,5.70
2012,01,26,05,40,5.80
2012,01,26,05,41,9.30
2012,01,26,05,42,9.40
2012,01,26,05,43,6.70
2012,01,26,05,44,3.90
2012,01,26,05,45,4.30
2012,01,26,05,46,4.70
2012,01,26,05,47,2.60
2012,01,26,05,48,1.00
2012,01,26,05,49,5.40
2012,01,26,05,50,4.60
2012,01,26,05,51,2.20
2012,01,26,05,52,0.50
2012,01,26,05,53,0.00
2012,01,26,05,54,1.50
2012,01,26,05,55,7.20
2012,01,26,05,56,6.80
2012,01,26,05,57,7.60
2012,01,26,05,58,2.70
2012,01,26,05,59,1.10
2012,01,26,06,00,0.20
2012,01,26,06,01,1.20
2012,01,26,06,02,2.00
2012,01,26,06,03,0.20
2012,01,26,06,04,1.70
2012,01,26,06,05,2.50
2012,01,26,06,06,0.80
2012,01,26,06,07,0.90
2012,01,26,06,08,1.80
2012,01,26,06,09,1.40
2012,01,26,06,10,1.70
2012,01,26,06,11,1.20
2012,01,26,06,12,9.10
2012,01,26,06,13,3.70
2012,01,26,06,14,5.50
2012,01,26,06,15,3.60
2012,01,26,06,16,3.40
2012,01,26,06,17,1.90
2012,01,26,06,18,1.80
2012,01,26,06,19,3.70
2012,01,26,06,20,0.10
2012,01,26,06,21,0.80
2012,01,26,06,22,0.00
2012,01,26,06,23,0.50
2012,01,26,06,24,0.30
2012,01,26,06,25,2.20
2012,01,26,06,26,0.40
2012,01,26,06,27,5.10
2012,01,26,06,28,4.70
2012,01,26,06,29,4.90
2012,01,26,06,30,4.00
2012,01,26,06,31,0.30
2012,01,26,06,32,0.10
2012,01,26,06,33,0.00
2012,01,26,06,34,1.80
2012,01,26,06,35,4.20
2012,01,26,06,36,2.70
2012,01,26,06,37,0.70
2012,01,26,06,38,2.20
2012,01,26,06,39,2.00
2012,01,26,06,40,1.50
2012,01,26,06,41,1.60
2012,01,26,06,42,0.90
2012,01,26,06,43,0.20
2012,01,26,06,44,0.10
2012,01,26,06,45,0.40
2012,01,26,06,46,1.00
2012,01,26,06,47,0.10
2012,01,26,06,48,1.40
2012,01,26,06,49,1.30
2012,01,26,06,50,0.10
2012,01,26,06,51,0.00
2012,01,26,06,52,0.00
2012,01,26,06,53,0.00
2012,01,26,06,54,0.00
2012,01,26,06,55,0.00
2012,01,26,06,56,0.00
2012,01,26,06,57,0.00
2012,01,26,06,58,0.00
2012,01,26,06,59,0.30
2012,01,26,07,00,1.40
2012,01,26,07,01,0.00
2012,01,26,07,02,0.60
2012,01,26,07,03,0.10
2012,01,26,07,04,0.10
2012,01,26,07,05,0.70
2012,01,26,07,06,0.60
2012,01,26,07,07,2.50
2012,01,26,07,08,1.30
2012,01,26,07,09,1.90
2012,01,26,07,10,1.30
2012,01,26,07,11,1.80
2012,01,26,07,12,1.00
2012,01,26,07,13,0.00
2012,01,26,07,14,0.00
2012,01,26,07,15,0.50
2012,01,26,07,16,0.10
2012,01,26,07,17,4.20
2012,01,26,07,18,0.60
2012,01,26,07,19,0.00
2012,01,26,07,20,0.00
2012,01,26,07,21,0.00
2012,01,26,07,22,0.00
2012,01,26,07,23,0.20
2012,01,26,07,24,0.00
2012,01,26,07,25,0.00
2012,01,26,07,26,0.00
2012,01,26,07,27,0.70
2012,01,26,07,28,0.00
2012,01,26,07,29,0.00
2012,01,26,07,30,0.00
2012,01,26,07,31,0.50
2012,01,26,07,32,2.10
2012,01,26,07,33,0.70
2012,01,26,07,34,1.00
2012,01,26,07,35,0.40
2012,01,26,07,36,0.00
2012,01,26,07,37,1.40
2012,01,26,07,38,1.70
2012,01,26,07,39,4.70
2012,01,26,07,40,2.30
2012,01,26,07,41,1.00
2012,01,26,07,42,2.90
2012,01,26,07,43,3.70
2012,01,26,07,44,6.20
2012,01,26,07,45,3.30
2012,01,26,07,46,2.70
2012,01,26,07,47,1.80
2012,01,26,07,48,0.60
2012,01,26,07,49,0.60
2012,01,26,07,50,4.50
2012,01,26,07,51,0.20
2012,01,26,07,52,0.40
2012,01,26,07,53,0.00
2012,01,26,07,54,0.00
2012,01,26,07,55,0.00
2012,01,26,07,56,0.00
2012,01,26,07,57,0.10
2012,01,26,07,58,0.10
2012,01,26,07,59,0.20
2012,01,26,08,00,0.00
2012,01,26,08,01,0.00
2012,01,26,08,02,1.10
2012,01,26,08,03,1.50
2012,01,26,08,04,0.00
2012,01,26,08,05,0.00
2012,01,26,08,06,0.00
2012,01,26,08,07,0.00
2012,01,26,08,08,0.00
2012,01,26,08,09,0.00
2012,01,26,08,10,0.10
2012,01,26,08,11,0.00
2012,01,26,08,12,1.50
2012,01,26,08,13,0.00
2012,01,26,08,14,0.00
2012,01,26,08,15,0.00
2012,01,26,08,16,0.40
2012,01,26,08,17,0.30
2012,01,26,08,18,0.10
2012,01,26,08,19,0.50
2012,01,26,08,20,0.40
2012,01,26,08,21,0.00
2012,01,26,08,22,0.70
2012,01,26,08,23,4.60
2012,01,26,08,24,1.00
2012,01,26,08,25,0.20
2012,01,26,08,26,0.60
2012,01,26,08,27,1.90
2012,01,26,08,28,0.90
2012,01,26,08,29,0.50
2012,01,26,08,30,1.20
2012,01,26,08,31,0.70
2012,01,26,08,32,0.50
2012,01,26,08,33,0.00
2012,01,26,08,34,1.60
2012,01,26,08,35,0.20
2012,01,26,08,36,1.00
2012,01,26,08,37,0.10
2012,01,26,08,38,0.10
2012,01,26,08,39,1.90
2012,01,26,08,40,2.60
2012,01,26,08,41,2.60
2012,01,26,08,42,2.50
2012,01,26,08,43,1.40
2012,01,26,08,44,2.10
2012,01,26,08,45,0.60
2012,01,26,08,46,2.10
2012,01,26,08,47,3.50
2012,01,26,08,48,1.40
2012,01,26,08,49,0.70
2012,01,26,08,50,3.80
2012,01,26,08,51,0.70
2012,01,26,08,52,1.50
2012,01,26,08,53,2.70
2012,01,26,08,54,3.10
2012,01,26,08,55,5.70
2012,01,26,08,56,1.70
2012,01,26,08,57,1.40
2012,01,26,08,58,1.20
2012,01,26,08,59,0.50
2012,01,26,09,00,0.20
2012,01,26,09,01,3.40
2012,01,26,09,02,1.60
2012,01,26,09,03,6.00
2012,01,26,09,04,3.70
2012,01,26,09,05,5.40
2012,01,26,09,06,2.30
2012,01,26,09,07,3.10
2012,01,26,09,08,2.00
2012,01,26,09,09,2.70
2012,01,26,09,10,2.20
2012,01,26,09,11,1.40
2012,01,26,09,12,3.20
2012,01,26,09,13,0.70
2012,01,26,09,14,1.60
2012,01,26,09,15,3.00
2012,01,26,09,16,0.70
2012,01,26,09,17,1.10
2012,01,26,09,18,1.50
2012,01,26,09,19,0.00
2012,01,26,09,20,2.30
2012,01,26,09,21,4.10
2012,01,26,09,22,1.20
2012,01,26,09,23,0.60
2012,01,26,09,24,1.60
2012,01,26,09,25,2.10
2012,01,26,09,26,6.40
2012,01,26,09,27,6.40
2012,01,26,09,28,3.20
2012,01,26,09,29,3.40
2012,01,26,09,30,12.90
2012,01,26,09,31,7.10
2012,01,26,09,32,2.00
2012,01,26,09,33,10.00
2012,01,26,09,34,6.90
2012,01,26,09,35,9.70
2012,01,26,09,36,10.00
2012,01,26,09,37,6.40
2012,01,26,09,38,5.80
2012,01,26,09,39,9.80
2012,01,26,09,40,9.80
2012,01,26,09,41,13.40
2012,01,26,09,42,12.00
2012,01,26,09,43,10.90
2012,01,26,09,44,10.00
2012,01,26,09,45,11.70
2012,01,26,09,46,16.30
2012,01,26,09,47,9.10
2012,01,26,09,48,9.30
2012,01,26,09,49,10.80
2012,01,26,09,50,9.50
2012,01,26,09,51,12.30
2012,01,26,09,52,10.20
2012,01,26,09,53,9.10
2012,01,26,09,54,6.80
2012,01,26,09,55,7.50
2012,01,26,09,56,6.80
2012,01,26,09,57,10.80
2012,01,26,09,58,19.90
2012,01,26,09,59,13.30
2012,01,26,10,00,11.50
2012,01,26,10,01,9.40
2012,01,26,10,02,12.10
2012,01,26,10,03,6.30
2012,01,26,10,04,10.80
2012,01,26,10,05,9.40
2012,01,26,10,06,5.60
2012,01,26,10,07,6.90
2012,01,26,10,08,8.20
2012,01,26,10,09,10.50
2012,01,26,10,10,6.40
2012,01,26,10,11,7.90
2012,01,26,10,12,10.30
2012,01,26,10,13,12.20
2012,01,26,10,14,11.40
2012,01,26,10,15,17.90
2012,01,26,10,16,9.00
2012,01,26,10,17,13.00
2012,01,26,10,18,6.10
2012,01,26,10,19,7.20
2012,01,26,10,20,5.80
2012,01,26,10,21,6.70
2012,01,26,10,22,7.50
2012,01,26,10,23,7.40
2012,01,26,10,24,4.50
2012,01,26,10,25,5.20
2012,01,26,10,26,5.80
2012,01,26,10,27,4.20
2012,01,26,10,28,5.60
2012,01,26,10,29,2.80
2012,01,26,10,30,3.60
2012,01,26,10,31,4.00
2012,01,26,10,32,7.30
2012,01,26,10,33,6.50
2012,01,26,10,34,3.70
2012,01,26,10,35,5.80
2012,01,26,10,36,5.20
2012,01,26,10,37,5.40
2012,01,26,10,38,5.80
2012,01,26,10,39,4.50
2012,01,26,10,40,5.70
2012,01,26,10,41,4.40
2012,01,26,10,42,9.20
2012,01,26,10,43,10.00
2012,01,26,10,44,9.60
2012,01,26,10,45,4.00
2012,01,26,10,46,5.20
2012,01,26,10,47,17.80
2012,01,26,10,48,11.70
2012,01,26,10,49,13.00
2012,01,26,10,50,15.60
2012,01,26,10,51,8.10
2012,01,26,10,52,12.60
2012,01,26,10,53,10.00
2012,01,26,10,54,12.30
2012,01,26,10,55,10.50
2012,01,26,10,56,10.90
2012,01,26,10,57,13.10
2012,01,26,10,58,8.20
2012,01,26,10,59,11.90
2012,01,26,11,00,10.80
2012,01,26,11,01,13.70
2012,01,26,11,02,14.10
2012,01,26,11,03,11.60
2012,01,26,11,04,15.60
2012,01,26,11,05,14.90
2012,01,26,11,06,13.50
2012,01,26,11,07,11.70
2012,01,26,11,08,9.20
2012,01,26,11,09,7.90
2012,01,26,11,10,13.50
2012,01,26,11,11,13.00
2012,01,26,11,12,11.20
2012,01,26,11,13,10.90
2012,01,26,11,14,10.70
2012,01,26,11,15,10.40
2012,01,26,11,16,5.70
2012,01,26,11,17,7.70
2012,01,26,11,18,14.20
2012,01,26,11,19,7.10
2012,01,26,11,20,14.10
2012,01,26,11,21,11.20
2012,01,26,11,22,9.50
2012,01,26,11,23,13.80
2012,01,26,11,24,12.90
2012,01,26,11,25,8.60
2012,01,26,11,26,12.20
2012,01,26,11,27,6.90
2012,01,26,11,28,13.00
2012,01,26,11,29,11.30
2012,01,26,11,30,13.00
2012,01,26,11,31,14.60
2012,01,26,11,32,17.10
2012,01,26,11,33,19.00
2012,01,26,11,34,13.80
2012,01,26,11,35,11.00
2012,01,26,11,36,8.90
2012,01,26,11,37,9.80
2012,01,26,11,38,7.40
2012,01,26,11,39,16.30
2012,01,26,11,40,14.10
2012,01,26,11,41,9.20
2012,01,26,11,42,13.10
2012,01,26,11,43,12.70
2012,01,26,11,44,10.50
2012,01,26,11,45,13.90
2012,01,26,11,46,15.00
2012,01,26,11,47,10.30
2012,01,26,11,48,12.40
2012,01,26,11,49,11.20
2012,01,26,11,50,13.70
2012,01,26,11,51,8.90
2012,01,26,11,52,9.60
2012,01,26,11,53,8.80
2012,01,26,11,54,10.00
2012,01,26,11,55,12.50
2012,01,26,11,56,7.80
2012,01,26,11,57,10.60
2012,01,26,11,58,10.30
2012,01,26,11,59,4.80
2012,01,26,12,00,17.40
2012,01,26,12,01,16.70
2012,01,26,12,02,19.30
2012,01,26,12,03,13.20
2012,01,26,12,04,11.10
2012,01,26,12,05,15.30
2012,01,26,12,06,15.30
2012,01,26,12,07,14.40
2012,01,26,12,08,12.20
2012,01,26,12,09,9.60
2012,01,26,12,10,11.60
2012,01,26,12,11,12.50
2012,01,26,12,12,15.80
2012,01,26,12,13,16.70
2012,01,26,12,14,15.30
2012,01,26,12,15,16.50
2012,01,26,12,16,10.50
2012,01,26,12,17,13.60
2012,01,26,12,18,12.40
2012,01,26,12,19,11.20
2012,01,26,12,20,8.10
2012,01,26,12,21,12.00
2012,01,26,12,22,16.90
2012,01,26,12,23,12.00
2012,01,26,12,24,10.60
2012,01,26,12,25,14.50
2012,01,26,12,26,8.30
2012,01,26,12,27,17.70
2012,01,26,12,28,17.20
2012,01,26,12,29,10.20
2012,01,26,12,30,10.20
2012,01,26,12,31,13.90
2012,01,26,12,32,11.60
2012,01,26,12,33,8.80
2012,01,26,12,34,7.40
2012,01,26,12,35,10.40
2012,01,26,12,36,10.30
2012,01,26,12,37,12.20
2012,01,26,12,38,14.10
2012,01,26,12,39,13.80
2012,01,26,12,40,17.50
2012,01,26,12,41,14.30
2012,01,26,12,42,17.10
2012,01,26,12,43,12.40
2012,01,26,12,44,15.50
2012,01,26,12,45,19.90
2012,01,26,12,46,21.70
2012,01,26,12,47,16.70
2012,01,26,12,48,10.50
2012,01,26,12,49,17.70
2012,01,26,12,50,13.70
2012,01,26,12,51,20.40
2012,01,26,12,52,17.10
2012,01,26,12,53,10.40
2012,01,26,12,54,9.80
2012,01,26,12,55,10.30
2012,01,26,12,56,9.30
2012,01,26,12,57,17.90
2012,01,26,12,58,18.40
2012,01,26,12,59,6.80
2012,01,26,13,00,8.90
2012,01,26,13,01,20.50
2012,01,26,13,02,14.10
2012,01,26,13,03,15.20
2012,01,26,13,04,14.40
2012,01,26,13,05,12.00
2012,01,26,13,06,8.90
2012,01,26,13,07,9.60
2012,01,26,13,08,12.00
2012,01,26,13,09,15.40
2012,01,26,13,10,10.00
2012,01,26,13,11,8.00
2012,01,26,13,12,11.50
2012,01,26,13,13,15.50
2012,01,26,13,14,19.50
2012,01,26,13,15,10.60
2012,01,26,13,16,12.40
2012,01,26,13,17,8.90
2012,01,26,13,18,16.70
2012,01,26,13,19,8.70
2012,01,26,13,20,5.00
2012,01,26,13,21,9.70
2012,01,26,13,22,10.00
2012,01,26,13,23,6.40
2012,01,26,13,24,8.10
2012,01,26,13,25,8.10
2012,01,26,13,26,14.80
2012,01,26,13,27,8.00
2012,01,26,13,28,6.20
2012,01,26,13,29,8.80
2012,01,26,13,30,7.70
2012,01,26,13,31,15.30
2012,01,26,13,32,11.30
2012,01,26,13,33,5.70
2012,01,26,13,34,5.90
2012,01,26,13,35,14.00
2012,01,26,13,36,14.80
2012,01,26,13,37,10.90
2012,01,26,13,38,13.20
2012,01,26,13,39,10.90
2012,01,26,13,40,15.00
2012,01,26,13,41,13.60
2012,01,26,13,42,14.70
2012,01,26,13,43,10.10
2012,01,26,13,44,11.60
2012,01,26,13,45,8.40
2012,01,26,13,46,14.00
2012,01,26,13,47,10.50
2012,01,26,13,48,12.80
2012,01,26,13,49,12.00
2012,01,26,13,50,10.70
2012,01,26,13,51,9.10
2012,01,26,13,52,17.90
2012,01,26,13,53,12.60
2012,01,26,13,54,12.20
2012,01,26,13,55,8.50
2012,01,26,13,56,10.50
2012,01,26,13,57,12.20
2012,01,26,13,58,12.60
2012,01,26,13,59,13.10
2012,01,26,14,00,12.30
2012,01,26,14,01,15.90
2012,01,26,14,02,11.20
2012,01,26,14,03,16.50
2012,01,26,14,04,11.60
2012,01,26,14,05,11.70
2012,01,26,14,06,9.50
2012,01,26,14,07,8.50
2012,01,26,14,08,11.10
2012,01,26,14,09,8.10
2012,01,26,14,10,14.60
2012,01,26,14,11,15.10
2012,01,26,14,12,8.20
2012,01,26,14,13,9.50
2012,01,26,14,14,6.10
2012,01,26,14,15,12.90
2012,01,26,14,16,13.00
2012,01,26,14,17,10.50
2012,01,26,14,18,11.10
2012,01,26,14,19,20.40
2012,01,26,14,20,9.90
2012,01,26,14,21,8.60
2012,01,26,14,22,5.50
2012,01,26,14,23,5.60
2012,01,26,14,24,5.40
2012,01,26,14,25,4.70
2012,01,26,14,26,10.20
2012,01,26,14,27,8.00
2012,01,26,14,28,18.40
2012,01,26,14,29,8.70
2012,01,26,14,30,9.40
2012,01,26,14,31,7.20
2012,01,26,14,32,6.40
2012,01,26,14,33,13.40
2012,01,26,14,34,16.40
2012,01,26,14,35,13.80
2012,01,26,14,36,14.60
2012,01,26,14,37,13.20
2012,01,26,14,38,13.80
2012,01,26,14,39,13.30
2012,01,26,14,40,12.90
2012,01,26,14,41,11.50
2012,01,26,14,42,12.70
2012,01,26,14,43,15.20
2012,01,26,14,44,8.50
2012,01,26,14,45,7.90
2012,01,26,14,46,7.70
2012,01,26,14,47,12.10
2012,01,26,14,48,7.50
2012,01,26,14,49,13.00
2012,01,26,14,50,9.10
2012,01,26,14,51,6.00
2012,01,26,14,52,7.00
2012,01,26,14,53,7.70
2012,01,26,14,54,9.40
2012,01,26,14,55,8.00
2012,01,26,14,56,10.50
2012,01,26,14,57,9.00
2012,01,26,14,58,11.00
2012,01,26,14,59,13.20
2012,01,26,15,00,16.90
2012,01,26,15,01,14.20
2012,01,26,15,02,13.00
2012,01,26,15,03,6.90
2012,01,26,15,04,10.60
2012,01,26,15,05,9.80
2012,01,26,15,06,12.20
2012,01,26,15,07,10.50
2012,01,26,15,08,10.70
2012,01,26,15,09,12.10
2012,01,26,15,10,10.90
2012,01,26,15,11,9.70
2012,01,26,15,12,8.50
2012,01,26,15,13,11.90
2012,01,26,15,14,10.70
2012,01,26,15,15,7.00
2012,01,26,15,16,10.90
2012,01,26,15,17,15.90
2012,01,26,15,18,9.00
2012,01,26,15,19,8.00
2012,01,26,15,20,8.30
2012,01,26,15,21,10.80
2012,01,26,15,22,12.60
2012,01,26,15,23,11.40
2012,01,26,15,24,10.70
2012,01,26,15,25,10.70
2012,01,26,15,26,8.90
2012,01,26,15,27,9.10
2012,01,26,15,28,11.80
2012,01,26,15,29,14.20
2012,01,26,15,30,13.70
2012,01,26,15,31,10.70
2012,01,26,15,32,8.40
2012,01,26,15,33,10.60
2012,01,26,15,34,9.40
2012,01,26,15,35,6.30
2012,01,26,15,36,9.30
2012,01,26,15,37,10.90
2012,01,26,15,38,12.20
2012,01,26,15,39,8.60
2012,01,26,15,40,11.30
2012,01,26,15,41,10.40
2012,01,26,15,42,7.30
2012,01,26,15,43,11.50
2012,01,26,15,44,8.50
2012,01,26,15,45,9.00
2012,01,26,15,46,14.00
2012,01,26,15,47,6.40
2012,01,26,15,48,6.70
2012,01,26,15,49,10.10
2012,01,26,15,50,6.80
2012,01,26,15,51,11.70
2012,01,26,15,52,11.70
2012,01,26,15,53,9.70
2012,01,26,15,54,9.20
2012,01,26,15,55,11.60
2012,01,26,15,56,16.30
2012,01,26,15,57,15.00
2012,01,26,15,58,10.90
2012,01,26,15,59,8.50
2012,01,26,16,00,7.80
2012,01,26,16,01,3.80
2012,01,26,16,02,5.90
2012,01,26,16,03,8.00
2012,01,26,16,04,5.50
2012,01,26,16,05,8.80
2012,01,26,16,06,9.40
2012,01,26,16,07,7.80
2012,01,26,16,08,11.60
2012,01,26,16,09,8.00
2012,01,26,16,10,10.60
2012,01,26,16,11,6.80
2012,01,26,16,12,12.10
2012,01,26,16,13,7.10
2012,01,26,16,14,9.40
2012,01,26,16,15,7.10
2012,01,26,16,16,8.60
2012,01,26,16,17,12.50
2012,01,26,16,18,7.90
2012,01,26,16,19,8.30
2012,01,26,16,20,9.90
2012,01,26,16,21,10.90
2012,01,26,16,22,13.80
2012,01,26,16,23,14.00
2012,01,26,16,24,12.50
2012,01,26,16,25,11.00
2012,01,26,16,26,10.30
2012,01,26,16,27,9.50
2012,01,26,16,28,5.10
2012,01,26,16,29,10.00
2012,01,26,16,30,10.40
2012,01,26,16,31,6.80
2012,01,26,16,32,4.70
2012,01,26,16,33,11.30
2012,01,26,16,34,5.50
2012,01,26,16,35,7.30
2012,01,26,16,36,8.10
2012,01,26,16,37,6.10
2012,01,26,16,38,7.50
2012,01,26,16,39,5.20
2012,01,26,16,40,7.80
2012,01,26,16,41,11.90
2012,01,26,16,42,10.70
2012,01,26,16,43,11.00
2012,01,26,16,44,10.70
2012,01,26,16,45,18.20
2012,01,26,16,46,16.50
2012,01,26,16,47,17.20
2012,01,26,16,48,18.90
2012,01,26,16,49,14.60
2012,01,26,16,50,11.60
2012,01,26,16,51,9.10
2012,01,26,16,52,10.80
2012,01,26,16,53,13.70
2012,01,26,16,54,10.60
2012,01,26,16,55,12.10
2012,01,26,16,56,11.80
2012,01,26,16,57,7.30
2012,01,26,16,58,12.60
2012,01,26,16,59,10.20
2012,01,26,17,00,14.90
2012,01,26,17,01,15.50
2012,01,26,17,02,17.10
2012,01,26,17,03,15.90
2012,01,26,17,04,7.10
2012,01,26,17,05,12.20
2012,01,26,17,06,12.50
2012,01,26,17,07,10.40
2012,01,26,17,08,9.00
2012,01,26,17,09,9.10
2012,01,26,17,10,5.90
2012,01,26,17,11,13.30
2012,01,26,17,12,10.30
2012,01,26,17,13,7.40
2012,01,26,17,14,7.40
2012,01,26,17,15,7.60
2012,01,26,17,16,5.80
2012,01,26,17,17,7.60
2012,01,26,17,18,8.50
2012,01,26,17,19,7.10
2012,01,26,17,20,9.50
2012,01,26,17,21,9.20
2012,01,26,17,22,14.40
2012,01,26,17,23,8.10
2012,01,26,17,24,8.40
2012,01,26,17,25,10.50
2012,01,26,17,26,8.50
2012,01,26,17,27,8.60
2012,01,26,17,28,7.90
2012,01,26,17,29,8.90
2012,01,26,17,30,9.30
2012,01,26,17,31,6.70
2012,01,26,17,32,8.10
2012,01,26,17,33,6.70
2012,01,26,17,34,4.30
2012,01,26,17,35,7.80
2012,01,26,17,36,10.30
2012,01,26,17,37,9.10
2012,01,26,17,38,8.40
2012,01,26,17,39,6.30
2012,01,26,17,40,8.90
2012,01,26,17,41,8.00
2012,01,26,17,42,5.90
2012,01,26,17,43,4.80
2012,01,26,17,44,6.00
2012,01,26,17,45,4.70
2012,01,26,17,46,5.90
2012,01,26,17,47,10.70
2012,01,26,17,48,5.40
2012,01,26,17,49,5.60
2012,01,26,17,50,4.50
2012,01,26,17,51,9.80
2012,01,26,17,52,4.20
2012,01,26,17,53,9.80
2012,01,26,17,54,8.30